Location: *
(46.1200°N, 11.2700°E)
Time: 07:39:22
(UTC+00:00)

Cosmos 2278 Rocket - Pass Details

Date: 02 March 2021
Orbit: 842 x 845 km, 71.0° (Epoch: 19 April)

Event Time Altitude Azimuth Distance (km) Brightness Sun altitude
Rises 18:54:39 0° 339° (NNW) 3,415 5.8 -20.1°
Reaches altitude 10° 18:57:31 10° 352° (N) 2,476 4.9 -20.6°
Maximum altitude 19:02:14 26° 49° (NE) 1,602 3.3 -21.4°
Enters shadow 19:02:16 26° 49° (NE) 1,602 3.3 -21.4°
